日時,福島,郡山,降水量,気温
2012/9/1 0:00,0.69,0.52,,26.4
2012/9/1 1:00,0.71,0.52,,26.1
2012/9/1 2:00,0.71,0.52,,25.8
2012/9/1 3:00,0.71,0.52,,25.2
2012/9/1 4:00,0.72,0.52,,24.6
2012/9/1 5:00,0.72,0.51,,23.9
2012/9/1 6:00,0.72,0.52,,24
2012/9/1 7:00,0.73,0.52,,24.6
2012/9/1 8:00,0.71,0.51,,26.2
2012/9/1 9:00,0.68,0.51,,28.3
2012/9/1 10:00,0.66,0.5,0,28.1
2012/9/1 11:00,0.67,0.47,0,27.1
2012/9/1 12:00,0.66,0.48,0,28.6
2012/9/1 13:00,0.66,0.47,,28.4
2012/9/1 14:00,0.66,0.48,0,29.1
2012/9/1 15:00,0.65,0.48,,30.8
2012/9/1 16:00,0.66,0.48,,30.7
2012/9/1 17:00,0.65,0.5,,29.6
2012/9/1 18:00,0.67,0.5,,28
2012/9/1 19:00,0.68,0.51,,26.5
2012/9/1 20:00,0.69,0.51,,26
2012/9/1 21:00,0.71,0.52,,25.9
2012/9/1 22:00,0.71,0.51,,25.2
2012/9/1 23:00,0.72,0.52,0,24.7
2012/9/2 0:00,0.71,0.52,0.5,24.3
2012/9/2 1:00,0.71,0.52,,24.1
2012/9/2 2:00,0.72,0.51,0,24
2012/9/2 3:00,0.72,0.52,0,23.7
2012/9/2 4:00,0.72,0.51,,23.8
2012/9/2 5:00,0.73,0.52,,23.5
2012/9/2 6:00,0.73,0.52,0,23.8
2012/9/2 7:00,0.73,0.52,0,24.2
2012/9/2 8:00,0.72,0.51,0,25.3
2012/9/2 9:00,0.69,0.51,,26.9
2012/9/2 10:00,0.68,0.51,0,27
2012/9/2 11:00,0.67,0.51,0,27.3
2012/9/2 12:00,0.67,0.5,0,26.3
2012/9/2 13:00,0.68,0.5,1.5,25.6
2012/9/2 14:00,0.69,0.51,0,25.8
2012/9/2 15:00,0.69,0.51,0,26.7
2012/9/2 16:00,0.69,0.51,0,27.3
2012/9/2 17:00,0.69,0.51,0,26.6
2012/9/2 18:00,0.7,0.51,0,25.9
2012/9/2 19:00,0.7,0.51,,25.5
2012/9/2 20:00,0.71,0.51,0,24.5
2012/9/2 21:00,0.71,0.52,,24.3
2012/9/2 22:00,0.72,0.51,,24.1
2012/9/2 23:00,0.73,0.51,,23.9
2012/9/3 0:00,0.73,0.52,,23.9
2012/9/3 1:00,0.73,0.52,,23.8
2012/9/3 2:00,0.73,0.51,,23.4
2012/9/3 3:00,0.73,0.52,,23.1
2012/9/3 4:00,0.74,0.51,,22.3
2012/9/3 5:00,0.74,0.52,,22.3
2012/9/3 6:00,0.74,0.52,,22.6
2012/9/3 7:00,0.74,0.52,,23.8
2012/9/3 8:00,0.72,0.51,,24.9
2012/9/3 9:00,0.68,0.51,,27
2012/9/3 10:00,0.63,0.51,,28.2
2012/9/3 11:00,0.62,0.51,,29.4
2012/9/3 12:00,0.61,0.5,,30.7
2012/9/3 13:00,0.63,0.48,,31.5
2012/9/3 14:00,0.62,0.47,,29.2
2012/9/3 15:00,0.65,0.49,,27.2
2012/9/3 16:00,0.64,0.49,40.5,23.9
2012/9/3 17:00,0.69,0.49,0.5,24.5
2012/9/3 18:00,0.69,0.49,,24.1
2012/9/3 19:00,0.7,0.5,,23.7
2012/9/3 20:00,0.7,0.51,,23.6
2012/9/3 21:00,0.71,0.51,,23.7
2012/9/3 22:00,0.71,0.52,,23.4
2012/9/3 23:00,0.71,0.52,,23.2
2012/9/4 0:00,0.71,0.52,,23
2012/9/4 1:00,0.71,0.52,,22.5
2012/9/4 2:00,0.72,0.52,,22.3
2012/9/4 3:00,0.72,0.52,,22.4
2012/9/4 4:00,0.72,0.52,,22.2
2012/9/4 5:00,0.72,0.52,,22.1
2012/9/4 6:00,0.72,0.52,,22.2
2012/9/4 7:00,0.71,0.52,,23
2012/9/4 8:00,0.71,0.51,,24
2012/9/4 9:00,0.69,0.5,0,25.5
2012/9/4 10:00,0.66,0.51,,27.1
2012/9/4 11:00,0.64,0.49,,29
2012/9/4 12:00,0.63,0.48,,30.7
2012/9/4 13:00,0.62,0.47,,30.8
2012/9/4 14:00,0.62,0.48,0,30.1
2012/9/4 15:00,0.62,0.48,0,29.6
2012/9/4 16:00,0.63,0.48,0,27.4
2012/9/4 17:00,0.64,0.48,0,25.7
2012/9/4 18:00,0.68,0.49,0,24.6
2012/9/4 19:00,0.69,0.5,1.5,24.2
2012/9/4 20:00,0.7,0.51,0,24.1
2012/9/4 21:00,0.7,0.52,,23.9
2012/9/4 22:00,0.7,0.51,,23.9
2012/9/4 23:00,0.71,0.52,,23.5
2012/9/5 0:00,0.71,0.52,,23.3
2012/9/5 1:00,0.71,0.51,,22.8
2012/9/5 2:00,0.72,0.52,,22.6
2012/9/5 3:00,0.71,0.52,,22.1
2012/9/5 3:59,0.71,0.52,,21.9
2012/9/5 4:59,0.72,0.52,,22.1
2012/9/5 5:59,0.72,0.52,,22.2
2012/9/5 6:59,0.71,0.52,,22.7
2012/9/5 7:59,0.7,0.51,,23.9
2012/9/5 8:59,0.69,0.5,,25.4
2012/9/5 9:59,0.66,0.48,,27
2012/9/5 10:59,0.63,0.48,,29
2012/9/5 11:59,0.62,0.47,,30.2
2012/9/5 12:59,0.62,0.47,,30.9
2012/9/5 13:59,0.59,0.47,,30.9
2012/9/5 14:59,0.59,0.48,,31.1
2012/9/5 15:59,0.6,0.48,,30.9
2012/9/5 16:59,0.61,0.47,,30.8
2012/9/5 17:59,0.65,0.48,,29.5
2012/9/5 18:59,0.66,0.48,0,27.6
2012/9/5 19:59,0.67,0.49,,26
2012/9/5 20:59,0.68,0.51,,25.1
2012/9/5 21:59,0.69,0.51,,24.8
2012/9/5 22:59,0.69,0.51,,24.2
2012/9/5 23:59,0.7,0.51,,23.6
2012/9/6 0:59,0.7,0.51,,22.8
2012/9/6 1:59,0.71,0.51,,23
2012/9/6 2:59,0.72,0.51,,22.2
2012/9/6 3:59,0.72,0.52,,21.9
2012/9/6 4:59,0.72,0.52,,22.1
2012/9/6 5:59,0.72,0.52,,21.9
2012/9/6 6:59,0.72,0.52,,22.7
2012/9/6 7:59,0.7,0.51,,24.1
2012/9/6 8:59,0.69,0.5,,25.5
2012/9/6 9:59,0.67,0.5,,26.7
2012/9/6 10:59,0.66,0.5,0.5,24.9
2012/9/6 11:59,0.67,0.49,4,22.8
2012/9/6 12:59,0.69,0.5,13.5,22.8
2012/9/6 13:59,0.69,0.51,0,23.8
2012/9/6 14:59,0.67,0.52,,24
2012/9/6 15:59,0.66,0.51,0,24.5
2012/9/6 16:59,0.67,0.51,0,24.8
2012/9/6 17:59,0.68,0.51,,24.4
2012/9/6 18:59,0.7,0.52,,24
2012/9/6 19:59,0.7,0.52,,23.1
2012/9/6 20:59,0.7,0.52,,22.6
2012/9/6 21:59,0.7,0.52,,22.3
2012/9/6 22:59,0.71,0.52,,22.1
2012/9/6 23:59,0.71,0.52,,21.9
2012/9/7 0:59,0.71,0.52,,21.1
2012/9/7 1:59,0.72,0.52,,20.5
2012/9/7 2:59,0.72,0.52,,20.3
2012/9/7 3:59,0.72,0.52,,20.1
2012/9/7 4:59,0.73,0.52,,19.7
2012/9/7 5:59,0.73,0.52,,19.8
2012/9/7 6:59,0.73,0.52,,21.1
2012/9/7 7:59,0.71,0.51,,23
2012/9/7 8:59,0.69,0.5,,25.4
2012/9/7 9:59,0.67,0.5,,27
2012/9/7 10:59,0.65,0.49,,28.9
2012/9/7 11:59,0.64,0.47,,29.8
2012/9/7 12:59,0.65,0.47,,31.4
2012/9/7 13:59,0.63,0.47,,31.6
2012/9/7 14:59,0.62,0.47,,30.9
2012/9/7 15:59,0.61,0.47,,30.1
2012/9/7 16:59,0.64,0.47,,28.9
2012/9/7 17:59,0.66,0.47,,27.6
2012/9/7 18:59,0.67,0.49,,26.5
2012/9/7 19:59,0.68,0.5,,25.7
2012/9/7 20:59,0.69,0.5,,24.7
2012/9/7 21:59,0.7,0.51,,23.6
2012/9/7 22:59,0.7,0.51,,22.9
2012/9/7 23:59,0.71,0.52,,22.3
2012/9/8 0:59,0.71,0.52,,21.9
2012/9/8 1:59,0.72,0.52,,21.3
2012/9/8 2:59,0.72,0.52,,20.9
2012/9/8 3:59,0.73,0.52,,20.6
2012/9/8 4:59,0.73,0.52,,20.4
2012/9/8 5:59,0.73,0.52,,20.6
2012/9/8 6:59,0.73,0.52,,21.1
2012/9/8 7:59,0.72,0.52,,22.8
2012/9/8 8:59,0.69,0.52,,24.4
2012/9/8 9:59,0.67,0.51,,26.4
2012/9/8 10:59,0.66,0.5,,28.8
2012/9/8 11:59,0.64,0.48,,31.1
2012/9/8 12:59,0.63,0.48,,31.8
2012/9/8 13:59,0.6,0.48,,31.1
2012/9/8 14:59,0.6,0.47,,30.5
2012/9/8 15:59,0.61,0.47,,29.9
2012/9/8 16:59,0.64,0.47,,28.5
2012/9/8 17:59,0.66,0.49,0,27.1
2012/9/8 18:59,0.67,0.5,,26.5
2012/9/8 19:59,0.67,0.51,,26.5
2012/9/8 20:59,0.68,0.51,,26.7
2012/9/8 21:59,0.68,0.52,,26.2
2012/9/8 22:59,0.68,0.52,,26.1
2012/9/8 23:59,0.68,0.52,,25.8
2012/9/9 0:59,0.69,0.52,,25.3
2012/9/9 1:59,0.69,0.52,,25.1
2012/9/9 2:59,0.69,0.52,,24.8
2012/9/9 3:59,0.69,0.52,,24.9
2012/9/9 4:59,0.69,0.52,,25
2012/9/9 5:59,0.69,0.52,,24.8
2012/9/9 6:59,0.69,0.52,,25.9
2012/9/9 7:59,0.68,0.52,,27.5
2012/9/9 8:59,0.66,0.51,,28.8
2012/9/9 9:59,0.64,0.5,,30.3
2012/9/9 10:59,0.63,0.49,,31.8
2012/9/9 11:59,0.62,0.48,,31.5
2012/9/9 12:59,0.62,0.47,,32.4
2012/9/9 13:59,0.62,0.47,,32.5
2012/9/9 14:59,0.63,0.47,,32.6
2012/9/9 15:59,0.63,0.48,,31.6
2012/9/9 16:59,0.64,0.48,,30.7
2012/9/9 17:59,0.64,0.49,,28.9
2012/9/9 18:59,0.66,0.5,,28.5
2012/9/9 19:59,0.67,0.51,,27.2
2012/9/9 20:59,0.67,0.51,,26.7
2012/9/9 21:59,0.68,0.52,,26.3
2012/9/9 22:59,0.68,0.51,,25.9
2012/9/9 23:59,0.68,0.52,,25.4
2012/9/10 0:59,0.69,0.52,,25.1
2012/9/10 1:59,0.69,0.52,,24.4
2012/9/10 2:59,0.69,0.52,,24.5
2012/9/10 3:59,0.7,0.52,,23.4
2012/9/10 4:59,0.7,0.52,,24.4
2012/9/10 5:59,0.71,0.52,,23.5
2012/9/10 6:59,0.7,0.52,,25.5
2012/9/10 7:59,0.68,0.51,,26.4
2012/9/10 8:59,0.67,0.5,,28.3
2012/9/10 9:59,0.64,0.49,,29
2012/9/10 10:59,0.62,0.48,,30.1
2012/9/10 11:59,0.62,0.47,,31
2012/9/10 12:59,0.61,0.48,,32.5
2012/9/10 13:59,0.6,0.48,,32.6
2012/9/10 14:59,0.58,0.48,,32.9
2012/9/10 15:59,0.58,0.47,,32.6
2012/9/10 16:59,0.6,0.47,,31.8
2012/9/10 17:59,0.62,0.47,,30.6
2012/9/10 18:59,0.65,0.48,,29.5
2012/9/10 19:59,0.66,0.48,,28.3
2012/9/10 20:59,0.67,0.51,,27.2
2012/9/10 21:59,0.67,0.51,,26.6
2012/9/10 22:59,0.68,0.51,,25.8
2012/9/10 23:59,0.69,0.52,,25.3
2012/9/11 0:59,0.69,0.52,,25.2
2012/9/11 1:59,0.69,0.52,,25
2012/9/11 2:59,0.69,0.52,,24.5
2012/9/11 3:59,0.7,0.52,,23.2
2012/9/11 4:59,0.71,0.52,,23.2
2012/9/11 5:59,0.71,0.52,,22.8
2012/9/11 6:59,0.7,0.52,,24.2
2012/9/11 7:59,0.69,0.51,,25.7
2012/9/11 8:59,0.66,0.5,,28.4
2012/9/11 9:59,0.61,0.49,,29.7
2012/9/11 10:59,0.59,0.48,,31
2012/9/11 11:59,0.59,0.48,,32.8
2012/9/11 12:59,0.59,0.47,,33.1
2012/9/11 13:59,0.58,0.47,,33.5
2012/9/11 14:59,0.59,0.47,,34
2012/9/11 15:59,0.59,0.47,,31.6
2012/9/11 16:59,0.6,0.47,,30.2
2012/9/11 17:59,0.64,0.47,,29
2012/9/11 18:59,0.66,0.48,0,27.5
2012/9/11 19:59,0.67,0.49,,26.4
2012/9/11 20:59,0.68,0.5,,25.8
2012/9/11 21:59,0.68,0.51,,25.3
2012/9/11 22:59,0.69,0.51,,24.6
2012/9/11 23:59,0.69,0.51,,24.2
2012/9/12 0:59,0.7,0.52,,23.5
2012/9/12 1:59,0.7,0.52,,23.2
2012/9/12 2:59,0.71,0.52,,23.1
2012/9/12 3:59,0.71,0.52,,22.7
2012/9/12 4:59,0.71,0.52,,22.4
2012/9/12 5:59,0.71,0.52,,22.6
2012/9/12 6:59,0.71,0.52,,22.8
2012/9/12 7:59,0.7,0.52,,24.5
2012/9/12 8:59,0.66,0.49,,26.5
2012/9/12 9:59,0.62,0.48,,28.2
2012/9/12 10:59,0.61,0.48,,29.4
2012/9/12 11:59,0.61,0.47,,29.8
2012/9/12 12:59,0.61,0.47,0,28.9
2012/9/12 13:59,0.62,0.47,0,29.3
2012/9/12 14:59,0.61,0.51,,28.6
2012/9/12 15:59,0.6,0.51,,28.9
2012/9/12 16:59,0.63,0.51,,27.5
2012/9/12 17:59,0.67,0.51,,26.5
2012/9/12 18:59,0.68,0.51,,25.9
2012/9/12 19:59,0.68,0.5,,25.2
2012/9/12 20:59,0.69,0.52,,24.7
2012/9/12 21:59,0.69,0.52,,23.9
2012/9/12 22:59,0.7,0.52,,23.5
2012/9/12 23:59,0.7,0.52,,23
2012/9/13 0:59,0.7,0.52,,22.6
2012/9/13 1:59,0.7,0.52,,21.9
2012/9/13 2:59,0.71,0.52,,21.7
2012/9/13 3:59,0.71,0.52,,21.4
2012/9/13 4:59,0.71,0.52,,21
2012/9/13 5:59,0.72,0.52,,21
2012/9/13 6:59,0.72,0.52,,21.7
2012/9/13 7:59,0.7,0.52,,23.3
2012/9/13 8:59,0.67,0.49,,25.3
2012/9/13 9:59,0.62,0.49,,28.2
2012/9/13 10:59,0.61,0.51,,29.7
2012/9/13 11:59,0.6,0.48,,31.4
2012/9/13 12:59,0.62,0.48,,32.5
2012/9/13 13:59,0.6,0.47,,33
2012/9/13 14:59,0.6,0.47,,33.3
2012/9/13 15:59,0.6,0.47,,31.9
2012/9/13 16:59,0.61,0.47,,30.7
2012/9/13 17:59,0.64,0.47,,29.6
2012/9/13 18:59,0.66,0.49,,29
2012/9/13 19:59,0.67,0.51,,27.9
2012/9/13 20:59,0.69,0.51,,26.8
2012/9/13 21:59,0.68,0.51,,26
2012/9/13 22:59,0.68,0.52,,24.9
2012/9/13 23:59,0.69,0.52,,24.3
2012/9/14 0:59,0.69,0.52,,24
2012/9/14 1:59,0.7,0.52,,23.3
2012/9/14 2:59,0.71,0.52,,22.8
2012/9/14 3:59,0.71,0.52,,22.9
2012/9/14 4:59,0.71,0.52,,22.7
2012/9/14 5:59,0.71,0.52,,22.8
2012/9/14 6:59,0.72,0.52,,23.6
2012/9/14 7:59,0.69,0.52,,25.9
2012/9/14 8:59,0.64,0.5,,29
2012/9/14 9:59,0.6,0.5,,30.5
2012/9/14 10:59,0.6,0.5,,31.6
2012/9/14 11:59,0.59,0.48,,31.9
2012/9/14 12:59,0.59,0.47,,32.7
2012/9/14 13:59,0.59,0.47,,33.4
2012/9/14 14:59,0.59,0.47,,33.4
2012/9/14 15:59,0.6,0.47,,32.8
2012/9/14 16:59,0.6,0.48,,31.3
2012/9/14 17:59,0.62,0.49,,29.6
2012/9/14 18:59,0.64,0.5,,28.4
2012/9/14 19:59,0.66,0.51,,27.6
2012/9/14 20:59,0.67,0.51,,27
2012/9/14 21:59,0.67,0.51,,26.5
2012/9/14 22:59,0.68,0.51,,26.1
2012/9/14 23:59,0.68,0.51,,25.5
2012/9/15 0:59,0.68,0.51,,25.1
2012/9/15 1:59,0.69,0.51,,25
2012/9/15 2:59,0.69,0.52,,24.7
2012/9/15 3:59,0.69,0.52,,24.6
2012/9/15 4:59,0.69,0.51,,24.5
2012/9/15 5:59,0.69,0.51,,24.2
2012/9/15 6:59,0.69,0.51,,24.6
2012/9/15 7:59,0.69,0.51,,26.8
2012/9/15 8:59,0.67,0.51,,28
2012/9/15 9:59,0.65,0.51,,29
2012/9/15 10:59,0.64,0.5,,30.5
2012/9/15 11:59,0.64,0.49,,32.1
2012/9/15 12:59,0.63,0.48,,32.7
2012/9/15 13:59,0.62,0.48,,32.9
2012/9/15 14:59,0.63,0.47,,32.8
2012/9/15 15:59,0.63,0.47,,32.2
2012/9/15 16:59,0.63,0.48,,30.4
2012/9/15 17:59,0.64,0.49,,29.2
2012/9/15 18:59,0.66,0.5,,28.4
2012/9/15 19:59,0.66,0.51,,27.2
2012/9/15 20:59,0.67,0.51,,26.8
2012/9/15 21:59,0.68,0.51,,26.3
2012/9/15 22:59,0.68,0.52,,26.2
2012/9/15 23:59,0.68,0.51,,25.5
2012/9/16 0:59,0.68,0.51,,25.1
2012/9/16 1:59,0.69,0.51,,24.5
2012/9/16 2:59,0.69,0.51,,24.3
2012/9/16 3:59,0.69,0.51,,24
2012/9/16 4:59,0.7,0.52,,24.3
2012/9/16 5:59,0.69,0.52,,24.3
2012/9/16 6:59,0.69,0.51,,24.7
2012/9/16 7:59,0.69,0.51,,25.4
2012/9/16 8:59,0.68,0.51,,27.2
2012/9/16 9:59,0.65,0.5,,29
2012/9/16 10:59,0.63,0.48,,30.2
2012/9/16 11:59,0.63,0.47,,32.1
2012/9/16 12:59,0.62,0.47,,32.2
2012/9/16 13:59,0.6,0.48,,33.7
2012/9/16 14:59,0.62,0.48,,32.6
2012/9/16 15:59,0.63,0.49,,32
2012/9/16 16:59,0.63,0.49,,31.2
2012/9/16 17:59,0.64,0.5,,29.7
2012/9/16 18:59,0.65,0.5,,28.9
2012/9/16 19:59,0.66,0.51,,28.1
2012/9/16 20:59,0.66,0.51,,27.6
2012/9/16 21:59,0.67,0.51,,27
2012/9/16 22:59,0.67,0.51,,26.7
2012/9/16 23:59,0.68,0.51,,26.6
2012/9/17 0:59,0.68,0.51,0,26.5
2012/9/17 1:59,0.68,0.51,0,26.2
2012/9/17 2:59,0.68,0.51,,26.3
2012/9/17 3:59,0.68,0.51,0,25.7
2012/9/17 4:59,0.68,0.51,0,25.2
2012/9/17 5:59,0.69,0.51,0,25.7
2012/9/17 6:59,0.68,0.51,,26.6
2012/9/17 7:59,0.67,0.51,,28.2
2012/9/17 8:59,0.66,0.51,,29.4
2012/9/17 9:59,0.64,0.5,,30.8
2012/9/17 10:59,0.63,0.49,,31.6
2012/9/17 11:59,0.63,0.49,,31.7
2012/9/17 12:59,0.63,0.49,,32.2
2012/9/17 13:59,0.63,0.48,,32.2
2012/9/17 14:59,0.62,0.48,,32.5
2012/9/17 15:59,0.62,0.47,,31.6
2012/9/17 16:59,0.64,0.49,,29.9
2012/9/17 17:59,0.65,0.5,0,28.7
2012/9/17 18:59,0.66,0.5,0,28
2012/9/17 19:59,0.67,0.51,0,27.9
2012/9/17 20:59,0.67,0.51,0,27.7
2012/9/17 21:59,0.67,0.51,,27.3
2012/9/17 22:59,0.67,0.52,,27.2
2012/9/17 23:59,0.67,0.51,,26.6
2012/9/18 0:59,0.68,0.51,,26.4
2012/9/18 1:59,0.68,0.51,,25.9
2012/9/18 2:59,0.68,0.51,0,25.6
2012/9/18 3:59,0.68,0.51,,25.4
2012/9/18 4:59,0.69,0.51,,25.2
2012/9/18 5:59,0.69,0.51,,25.2
2012/9/18 6:59,0.69,0.51,0,26.1
2012/9/18 7:59,0.68,0.51,,27.5
2012/9/18 8:59,0.66,0.49,,27.7
2012/9/18 9:59,0.62,0.48,0,28.7
2012/9/18 10:59,0.61,0.47,,31.1
2012/9/18 11:59,0.61,0.48,,31.7
2012/9/18 12:59,0.6,0.47,,32.8
2012/9/18 13:59,0.6,0.48,0,31.5
2012/9/18 14:59,0.6,0.47,,31.2
2012/9/18 15:59,0.6,0.47,,30.8
2012/9/18 16:59,0.63,0.47,,29.1
2012/9/18 17:59,0.66,0.48,,28.3
2012/9/18 18:59,0.67,0.48,,27.6
2012/9/18 19:59,0.67,0.5,,26.9
2012/9/18 20:59,0.67,0.51,,26.5
2012/9/18 21:59,0.68,0.51,,26.4
2012/9/18 22:59,0.68,0.51,,26.1
2012/9/18 23:59,0.68,0.51,,25.8
2012/9/19 0:59,0.69,0.51,,25.8
2012/9/19 1:59,0.68,0.51,,25.9
2012/9/19 2:59,0.69,0.51,,25.6
2012/9/19 3:59,0.69,0.51,0,24.8
2012/9/19 4:59,0.69,0.51,0.5,24
2012/9/19 5:59,0.69,0.51,0,24.8
2012/9/19 6:59,0.69,0.51,0,25.2
2012/9/19 7:59,0.69,0.51,0,25.9
2012/9/19 8:59,0.67,0.48,0,25.9
2012/9/19 9:59,0.67,0.49,1,25.9
2012/9/19 10:59,0.67,0.5,0,27.2
2012/9/19 11:59,0.65,0.5,0.5,27.8
2012/9/19 12:59,0.66,0.49,,28.5
2012/9/19 13:59,0.62,0.5,,27.9
2012/9/19 14:59,0.6,0.51,,28.5
2012/9/19 15:59,0.61,0.51,0,28.2
2012/9/19 16:59,0.64,0.49,0,27.6
2012/9/19 17:59,0.67,0.49,0,27.1
2012/9/19 18:59,0.67,0.49,0,26.3
2012/9/19 19:59,0.68,0.49,0,26.1
2012/9/19 20:59,0.68,0.51,0,25.8
2012/9/19 21:59,0.69,0.51,0,25.6
2012/9/19 22:59,0.69,0.5,0,25.1
2012/9/19 23:59,0.69,0.51,0,24.6
2012/9/20 0:59,0.7,0.51,0,24.6
2012/9/20 1:59,0.69,0.52,0,24.1
2012/9/20 2:59,0.69,0.52,0,24.2
2012/9/20 3:59,0.7,0.52,,23.7
2012/9/20 4:59,0.7,0.52,,23
2012/9/20 5:59,0.71,0.52,,22.9
2012/9/20 6:59,0.71,0.52,,23.8
2012/9/20 7:59,0.7,0.52,,25.1
2012/9/20 8:59,0.66,0.49,,26.9
2012/9/20 9:59,0.62,0.49,,26.9
2012/9/20 10:59,0.62,0.5,,26.5
2012/9/20 11:59,0.62,0.5,0,27.9
2012/9/20 12:59,0.63,0.49,,28.3
2012/9/20 13:59,0.62,0.49,,28.1
2012/9/20 14:59,0.62,0.51,0,26.6
2012/9/20 15:59,0.64,0.51,,25.9
2012/9/20 16:59,0.67,0.51,0,23.9
2012/9/20 17:59,0.69,0.51,0.5,23.4
2012/9/20 18:59,0.7,0.51,0,22.2
2012/9/20 19:59,0.7,0.52,0,21.8
2012/9/20 20:59,0.71,0.52,0,22
2012/9/20 21:59,0.71,0.52,,22
2012/9/20 22:59,0.71,0.52,,21.9
2012/9/20 23:59,0.71,0.52,0,21.7
2012/9/21 0:59,0.71,0.52,0,21.6
2012/9/21 1:59,0.72,0.52,0.5,20.7
2012/9/21 2:59,0.72,0.52,2,19.5
2012/9/21 3:59,0.73,0.52,0,19.8
2012/9/21 4:59,0.73,0.52,0,19.8
2012/9/21 5:59,0.72,0.52,0.5,19.8
2012/9/21 6:59,0.73,0.52,0,20
2012/9/21 7:59,0.72,0.52,0,20.9
2012/9/21 8:59,0.71,0.51,0,21
2012/9/21 9:59,0.7,0.52,0.5,21.4
2012/9/21 10:59,0.71,0.52,1,21.5
2012/9/21 11:59,0.71,0.52,0.5,21.8
2012/9/21 12:59,0.7,0.51,0,22.5
2012/9/21 13:59,0.69,0.52,0,22.3
2012/9/21 14:59,0.69,0.52,0,21.1
2012/9/21 15:59,0.7,0.52,0,20.9
2012/9/21 16:59,0.71,0.51,,21.2
2012/9/21 17:59,0.71,0.51,,19.9
2012/9/21 18:59,0.72,0.51,,19.6
2012/9/21 19:59,0.73,0.52,,19.1
2012/9/21 20:59,0.73,0.52,,18.9
2012/9/21 21:59,0.74,0.52,,18.4
2012/9/21 22:59,0.74,0.52,,17.8
2012/9/21 23:59,0.74,0.52,,17.7
2012/9/22 0:59,0.74,0.52,,17.5
2012/9/22 1:59,0.74,0.52,,17.3
2012/9/22 2:59,0.74,0.52,,17.5
2012/9/22 3:59,0.75,0.52,,17.3
2012/9/22 4:59,0.74,0.52,,17.3
2012/9/22 5:59,0.75,0.52,,17.3
2012/9/22 6:59,0.74,0.52,,18
2012/9/22 7:59,0.73,0.52,,18.4
2012/9/22 8:59,0.73,0.52,,20.1
2012/9/22 9:59,0.71,0.52,,21.5
2012/9/22 10:59,0.7,0.52,,23.2
2012/9/22 11:59,0.69,0.51,,24
2012/9/22 12:59,0.69,0.51,,25.6
2012/9/22 13:59,0.69,0.51,,25.9
2012/9/22 14:59,0.68,0.5,,25.5
2012/9/22 15:59,0.69,0.5,,25.1
2012/9/22 16:59,0.69,0.51,5.5,22
2012/9/22 17:59,0.7,0.52,0.5,21.9
2012/9/22 18:59,0.71,0.52,,21.1
2012/9/22 19:59,0.71,0.53,,20.7
2012/9/22 20:59,0.71,0.53,,20.4
2012/9/22 21:59,0.72,0.53,,20.3
2012/9/22 22:59,0.72,0.53,,19.9
2012/9/22 23:59,0.72,0.53,,19
2012/9/23 0:59,0.73,0.53,,19.3
2012/9/23 1:59,0.73,0.53,,18.8
2012/9/23 2:59,0.73,0.53,,18.9
2012/9/23 3:59,0.73,0.53,0,19
2012/9/23 4:59,0.73,0.53,,18.9
2012/9/23 5:59,0.73,0.53,0,18.8
2012/9/23 6:59,0.73,0.53,0,19
2012/9/23 7:59,0.73,0.53,0,19.1
2012/9/23 8:59,0.73,0.53,0.5,19.3
2012/9/23 9:59,0.73,0.52,2.5,19.5
2012/9/23 10:59,0.73,0.52,1.5,19.7
2012/9/23 11:59,0.72,0.52,3,19.6
2012/9/23 12:59,0.73,0.52,1.5,19
2012/9/23 13:59,0.73,0.51,2.5,19.1
2012/9/23 14:59,0.73,0.5,3.5,18.9
2012/9/23 15:59,0.73,0.5,1.5,18.9
2012/9/23 16:59,0.73,0.51,1,18.6
2012/9/23 17:59,0.73,0.51,1,18.1
2012/9/23 18:59,0.73,0.52,2,17.8
2012/9/23 19:59,0.74,0.52,2.5,17.7
2012/9/23 20:59,0.74,0.53,0.5,17.9
2012/9/23 21:59,0.74,0.53,0.5,17.5
2012/9/23 22:59,0.74,0.53,0.5,17.5
2012/9/23 23:59,0.74,0.53,0,17.8
2012/9/24 0:59,0.74,0.53,,17.9
2012/9/24 1:59,0.74,0.53,0,17.8
2012/9/24 2:59,0.74,0.53,0,17.8
2012/9/24 3:59,0.74,0.52,0,17.7
2012/9/24 4:59,0.74,0.53,,17.5
2012/9/24 5:59,0.74,0.53,0,17.6
2012/9/24 6:59,0.74,0.53,0.5,17.8
2012/9/24 7:59,0.74,0.53,2.5,17.7
2012/9/24 8:59,0.73,0.51,1.5,18.5
2012/9/24 9:59,0.7,0.52,0,19.4
2012/9/24 10:59,0.68,0.53,2,18.7
2012/9/24 11:59,0.72,0.52,4.5,17.9
2012/9/24 12:59,0.73,0.52,3,18.2
2012/9/24 13:59,0.7,0.52,1,18.6
2012/9/24 14:59,0.69,0.5,2,18.2
2012/9/24 15:59,0.7,0.52,3.5,17.7
2012/9/24 16:59,0.71,0.52,1,17.4
2012/9/24 17:59,0.74,,1,16.8
2012/9/24 18:59,0.74,0.52,1.5,16.4
2012/9/24 19:59,0.74,0.53,1,16.5
2012/9/24 20:59,0.74,0.53,0.5,16.2
2012/9/24 21:59,0.74,0.53,0,16.6
2012/9/24 22:59,0.74,0.53,0.5,16.6
2012/9/24 23:59,0.74,0.53,0,16.3
2012/9/25 0:59,0.74,0.53,,16.5
2012/9/25 1:59,0.75,0.53,0,16.4
2012/9/25 2:59,0.75,0.53,0,16.4
2012/9/25 3:59,0.75,0.53,0,16.7
2012/9/25 4:59,0.74,0.52,0,16.5
2012/9/25 5:59,0.74,0.53,,16.7
2012/9/25 6:59,0.74,0.53,,17
2012/9/25 7:59,0.74,0.53,,17.3
2012/9/25 8:59,0.73,0.52,,18.5
2012/9/25 9:59,0.7,0.52,,20.3
2012/9/25 10:59,0.69,0.52,,21.9
2012/9/25 11:59,0.67,0.52,,21.9
2012/9/25 12:59,0.68,0.52,,22.1
2012/9/25 13:59,0.67,0.52,,22.1
2012/9/25 14:59,0.67,0.53,,22.3
2012/9/25 15:59,0.68,0.52,0,21.4
2012/9/25 16:59,0.7,0.5,0,20.9
2012/9/25 17:59,0.71,0.51,,20.1
2012/9/25 18:59,0.67,0.51,,19.5
2012/9/25 19:59,0.68,0.52,,18.8
2012/9/25 20:59,0.71,0.53,,18.7
2012/9/25 21:59,0.73,0.53,,18.6
2012/9/25 22:59,0.74,0.53,,17.8
2012/9/25 23:59,0.74,0.53,,16.9
2012/9/26 0:59,0.74,0.53,,16.5
2012/9/26 1:59,0.74,0.53,,17
2012/9/26 2:59,0.74,0.53,,16.8
2012/9/26 3:59,0.74,0.53,,16.9
2012/9/26 4:59,0.74,0.53,,16.2
2012/9/26 5:59,0.74,0.53,,15.9
2012/9/26 6:59,0.75,0.53,,16.1
2012/9/26 7:59,0.74,0.53,,16.7
2012/9/26 8:59,0.71,0.52,,18.6
2012/9/26 9:59,0.7,0.52,,20.6
2012/9/26 10:59,0.69,0.51,,23.3
2012/9/26 11:59,0.68,0.5,,24.5
2012/9/26 12:59,0.69,0.49,,24.7
2012/9/26 13:59,0.67,0.49,,25.6
2012/9/26 14:59,0.65,0.49,,25.2
2012/9/26 15:59,0.65,0.5,,24.4
2012/9/26 16:59,0.68,0.51,,22.8
2012/9/26 17:59,0.7,0.52,,21.4
2012/9/26 18:59,0.71,0.53,,21.1
2012/9/26 19:59,0.72,0.53,,20
2012/9/26 20:59,0.73,0.53,,18.7
2012/9/26 21:59,0.73,0.53,,17.8
2012/9/26 22:59,0.74,0.53,,16.7
2012/9/26 23:59,0.74,0.53,,16.5
2012/9/27 0:59,0.74,0.53,,16.7
2012/9/27 1:59,0.75,0.53,0,16.3
2012/9/27 2:59,0.74,0.53,0,16.4
2012/9/27 3:59,0.75,0.53,0,16.2
2012/9/27 4:59,0.74,0.53,,16.2
2012/9/27 5:59,0.75,0.53,,16.2
2012/9/27 6:59,0.75,0.53,0,16.2
2012/9/27 7:59,0.74,0.53,0.5,16.6
2012/9/27 8:59,0.74,0.52,0.5,17.5
2012/9/27 9:59,0.73,0.52,0,18.3
2012/9/27 10:59,0.73,0.52,0.5,18.2
2012/9/27 11:59,0.73,0.53,0,19.3
2012/9/27 12:59,0.71,0.52,0,19.6
2012/9/27 13:59,0.7,0.52,0,19.6
2012/9/27 14:59,0.68,0.53,0,20.1
2012/9/27 15:59,0.68,0.53,,19.9
2012/9/27 16:59,0.71,0.51,0,18.5
2012/9/27 17:59,0.73,0.52,0.5,17.4
2012/9/27 18:59,0.74,0.52,0.5,17.3
2012/9/27 19:59,0.74,0.53,0,17.4
2012/9/27 20:59,0.74,0.53,0,17.5
2012/9/27 21:59,0.74,0.53,0,17.3
2012/9/27 22:59,0.74,0.53,0,17.2
2012/9/27 23:59,0.74,0.53,,17
2012/9/28 0:59,0.75,0.53,,16.2
2012/9/28 1:59,0.74,0.53,0,16.6
2012/9/28 2:59,0.74,0.53,0,15.5
2012/9/28 3:59,0.75,0.53,0.5,15.4
2012/9/28 4:59,0.75,0.53,0,15.5
2012/9/28 5:59,0.75,0.53,0,15.5
2012/9/28 6:59,0.75,0.53,0,16
2012/9/28 7:59,0.74,0.53,0,16.8
2012/9/28 8:59,0.74,,0.5,17.4
2012/9/28 9:59,0.72,,0,18.1
2012/9/28 10:59,0.7,0.53,0.5,18.3
2012/9/28 11:59,0.71,0.52,0.5,18.9
2012/9/28 12:59,0.7,0.52,0.5,19
2012/9/28 13:59,0.68,0.52,0.5,19.3
2012/9/28 14:59,0.68,0.52,0,19.5
2012/9/28 15:59,0.68,0.51,0.5,19.8
2012/9/28 16:59,0.68,0.52,0,19.5
2012/9/28 17:59,0.69,0.52,0.5,18.8
2012/9/28 18:59,0.7,0.52,0.5,18.8
2012/9/28 19:59,0.71,0.53,0.5,18.9
2012/9/28 20:59,0.7,0.53,0.5,19
2012/9/28 21:59,0.71,0.53,0,19.2
2012/9/28 22:59,0.72,0.53,0,19.2
2012/9/28 23:59,0.72,0.53,0,19.2
2012/9/29 0:59,0.72,0.53,0.5,19.3
2012/9/29 1:59,0.72,0.53,0,19.3
2012/9/29 2:59,0.72,0.53,0,19.4
2012/9/29 3:59,0.72,0.52,0,19.5
2012/9/29 4:59,0.71,0.53,,19.6
2012/9/29 5:59,0.72,0.53,0,19.6
2012/9/29 6:59,0.71,0.53,0,19.8
2012/9/29 7:59,0.71,0.53,0,20.3
2012/9/29 8:59,0.7,0.52,0,21.2
2012/9/29 9:59,0.68,0.52,0,22.8
2012/9/29 10:59,0.68,0.52,,23.1
2012/9/29 11:59,0.67,0.51,0,23.6
2012/9/29 12:59,0.66,0.51,,23.6
2012/9/29 13:59,0.67,0.5,0,24.9
2012/9/29 14:59,0.67,0.49,,25.6
2012/9/29 15:59,0.67,0.48,,25.9
2012/9/29 16:59,0.68,0.48,,24.9
2012/9/29 17:59,0.68,0.5,,23.5
2012/9/29 18:59,0.69,0.51,,22.6
2012/9/29 19:59,0.7,0.52,,22.4
2012/9/29 20:59,0.69,0.51,,22
2012/9/29 21:59,0.7,0.52,,22.2
2012/9/29 22:59,0.7,0.52,,21.8
2012/9/29 23:59,0.7,0.52,0,21.8
2012/9/30 0:59,0.71,0.52,,21.6
2012/9/30 1:59,0.7,0.52,,21.5
2012/9/30 2:59,0.71,0.52,,21.2
2012/9/30 3:59,0.71,0.52,,20.9
2012/9/30 4:59,0.71,0.52,,21
2012/9/30 5:59,0.71,0.52,,21
2012/9/30 6:59,0.71,0.52,,22.7
2012/9/30 7:59,0.7,0.52,,24.1
2012/9/30 8:59,0.67,0.51,,24.9
2012/9/30 9:59,0.66,0.51,0,26.2
2012/9/30 10:59,0.65,0.5,,28.2
2012/9/30 11:59,0.64,0.49,,28.6
2012/9/30 12:59,0.63,0.48,,29.4
2012/9/30 13:59,0.63,0.48,,29.8
2012/9/30 14:59,0.63,0.48,,29.4
2012/9/30 15:59,0.63,0.48,,28.7
2012/9/30 16:59,0.66,0.49,,27
2012/9/30 17:59,0.67,0.51,,26
2012/9/30 18:59,0.68,0.51,0,24.7
2012/9/30 19:59,0.69,0.5,0.5,23.2
2012/9/30 20:59,0.68,0.49,9.5,22.3
2012/9/30 21:59,0.7,0.49,4.5,22.4
2012/9/30 22:59,0.69,0.49,21.5,22.5
2012/9/30 23:59,0.7,0.49,4,23.1
2012/10/1 0:59,0.7,0.51,6,23.5
2012/10/1 1:59,0.7,0.52,0,22.7
2012/10/1 2:59,0.7,0.51,0,24.2
2012/10/1 3:59,0.7,0.51,,23.9
2012/10/1 4:59,0.7,0.51,,22.9
2012/10/1 5:59,0.7,0.51,,23.6
2012/10/1 6:59,0.7,0.51,0,24.2
2012/10/1 7:59,0.68,0.5,,25.1
2012/10/1 8:59,0.65,0.48,,26.7
2012/10/1 9:59,0.63,0.48,,27.4
2012/10/1 10:59,0.62,0.48,,26.1
2012/10/1 11:59,0.63,0.48,0,25.2
2012/10/1 12:59,0.64,0.47,,25.3
2012/10/1 13:59,0.63,0.48,,25.8
2012/10/1 14:59,0.63,0.48,,25.9
2012/10/1 15:59,0.63,0.49,,25.2
2012/10/1 16:59,0.65,0.48,,24.6
2012/10/1 17:59,0.68,0.48,,24.2
2012/10/1 18:59,0.68,0.49,,23.9
2012/10/1 19:59,0.69,0.49,,23.7
2012/10/1 20:59,0.7,0.51,0,21
2012/10/1 21:59,0.71,0.51,0.5,20.6
2012/10/1 22:59,0.71,0.51,1,20.4
2012/10/1 23:59,0.71,0.5,0.5,20.4
2012/10/2 0:59,0.72,0.51,0,20.3
2012/10/2 1:59,0.71,0.51,0.5,20
2012/10/2 2:59,0.72,0.51,0,19.9
2012/10/2 3:59,0.72,0.51,0.5,19.4
2012/10/2 4:59,0.72,0.52,0.5,19.2
2012/10/2 5:59,0.72,0.51,0.5,18.9
2012/10/2 6:59,0.73,0.51,0.5,18.6
2012/10/2 7:59,0.73,0.52,0.5,18.3
2012/10/2 8:59,0.72,0.49,0.5,18.6
2012/10/2 9:59,0.69,0.5,0,19.4
2012/10/2 10:59,0.68,0.51,,19.9
2012/10/2 11:59,0.68,0.5,,20
2012/10/2 12:59,0.68,0.49,0,19.6
2012/10/2 13:59,0.68,0.51,0,19.5
2012/10/2 14:59,0.69,0.52,0,19.6
2012/10/2 15:59,0.68,0.49,0,19.7
2012/10/2 16:59,0.68,0.49,,19.6
2012/10/2 17:59,0.72,0.49,,19.4
2012/10/2 18:59,0.72,0.5,,19.2